Weather History for Defiance, OH

Change the Weather History Date:

Friday, January 3, 2014

  Actual Average Record
Temperature  
Mean Temperature 0 °F -  
Max Temperature 12 °F 33 °F 59 °F (2004)
Min Temperature -11 °F 17 °F -11 °F (2014)
Degree Days  
Heating Degree Days 64    
Moisture  
Dew Point -6 °F    
Average Humidity 64    
Maximum Humidity 86    
Minimum Humidity 51    
Precipitation  
Precipitation 0.00 in - - ()
Sea Level Pressure  
Sea Level Pressure 30.41 in    
Wind  
Wind Speed 6 mph (SW)    
Max Wind Speed 12 mph    
Max Gust Speed -    
Visibility 10 miles    
Events      
Averages and records for this station are not official NWS values.
T = Trace of Precipitation, MM = Missing Value Source: NWS Daily Summary

Daily Weather History Graph

Daily Weather History Graph

Search for Another Location

Airport:

Trip Planner

Search our weather history database for the weather conditions in past years. The results will help you decide how hot, cold, wet, or windy it might be!

Date:

Astronomy

Jan. 03, 2014 Rise Set
Actual Time 8:03 AM EST 5:20 PM EST
Civil Twilight 7:32 AM EST 5:52 PM EST
Nautical Twilight 6:58 AM EST 6:26 PM EST
Astronomical Twilight 6:24 AM EST 7:00 PM EST
Moon 9:27 AM EST (1/3) 8:31 PM EST (1/3)
Length of Visible Light 10h 19m
Length of Day
9h 17m
Waxing Crescent, 8% of the Moon is Illuminated
Jan 3
Waxing Crescent
Jan 7
First Quarter
Jan 15
Full
Jan 24
Last Quarter
Jan 30
New

Hourly Weather History & Observations

Time (EST) Temp. Windchill Dew Point Humidity Pressure Visibility Wind Dir Wind Speed Gust Speed Precip Events Conditions
12:53 AM 3.9 °F -10.4 °F -7.1 °F 60% 30.37 in 10.0 mi NNW 9.2 mph - N/A   Clear
1:53 AM 1.0 °F -12.9 °F -8.0 °F 66% 30.37 in 10.0 mi NW 8.1 mph - N/A   Clear
2:53 AM -0.0 °F -9.9 °F -8.0 °F 69% 30.41 in 10.0 mi NW 4.6 mph - N/A   Clear
3:53 AM -2.9 °F -16.5 °F -9.9 °F 72% 30.43 in 10.0 mi NW 6.9 mph - N/A   Clear
4:53 AM -2.0 °F -13.9 °F -9.0 °F 72% 30.43 in 10.0 mi NW 5.8 mph - N/A   Clear
5:53 AM -7.1 °F - -11.9 °F 79% 30.45 in 10.0 mi Calm Calm - N/A   Clear
6:53 AM -9.0 °F -18.2 °F -14.1 °F 79% 30.48 in 9.0 mi SW 3.5 mph - N/A   Clear
7:53 AM -11.0 °F - -16.1 °F 78% 30.49 in 5.0 mi Calm Calm - N/A   Haze
8:53 AM -9.9 °F -19.2 °F -13.0 °F 86% 30.51 in 10.0 mi SSW 3.5 mph - N/A   Clear
9:53 AM -2.0 °F - -7.1 °F 79% 30.52 in 10.0 mi Calm Calm - N/A   Clear
10:53 AM 1.9 °F -5.6 °F -6.0 °F 69% 30.53 in 10.0 mi SW 3.5 mph - N/A   Clear
11:53 AM 7.0 °F -3.3 °F -6.0 °F 55% 30.51 in 10.0 mi SW 5.8 mph - N/A   Clear
12:53 PM 9.0 °F -0.9 °F -5.1 °F 53% 30.48 in 10.0 mi SW 5.8 mph - N/A   Clear
1:53 PM 10.0 °F 0.4 °F -2.9 °F 56% 30.46 in 10.0 mi SSW 5.8 mph - N/A   Clear
2:53 PM 10.9 °F 0.2 °F -2.9 °F 54% 30.45 in 10.0 mi SSW 6.9 mph - N/A   Clear
3:53 PM 10.9 °F 1.4 °F -4.0 °F 51% 30.43 in 10.0 mi SSW 5.8 mph - N/A   Clear
4:53 PM 10.9 °F 0.2 °F -4.0 °F 51% 30.40 in 10.0 mi South 6.9 mph - N/A   Clear
5:53 PM 10.9 °F -0.8 °F -2.9 °F 54% 30.39 in 10.0 mi South 8.1 mph - N/A   Scattered Clouds
6:53 PM 12.0 °F -0.4 °F -0.9 °F 56% 30.36 in 10.0 mi South 9.2 mph - N/A   Overcast
7:53 PM 12.9 °F -0.2 °F -0.0 °F 56% 30.35 in 10.0 mi South 10.4 mph - N/A   Overcast
8:53 PM 12.9 °F -0.2 °F 1.0 °F 59% 30.32 in 10.0 mi South 10.4 mph - N/A   Mostly Cloudy
9:53 PM 12.9 °F -0.9 °F 1.0 °F 59% 30.28 in 10.0 mi South 11.5 mph - N/A   Clear
10:53 PM 12.9 °F -0.2 °F 1.9 °F 62% 30.25 in 10.0 mi South 10.4 mph - N/A   Clear
11:53 PM 12.9 °F -0.2 °F 3.0 °F 65% 30.22 in 10.0 mi South 10.4 mph - N/A   Clear